Location: Caltech
(34.1382°N, 118.1253°W)
Time: 17:24:34
(UTC-07:00)

Iridium 95 - Visible Passes

Search period start: 01 July 2016 00:00
Search period end: 11 July 2016 00:00
Orbit: 776 x 779 km, 86.4° (Epoch: 01 July)

Date Brightness Start Highest point End Pass type
(mag) Time Alt. Az. Time Alt. Az. Time Alt. Az.
01 Jul 7.3 21:36:52 10° NE 21:39:53 15° ENE 21:40:38 15° E visible
01 Jul 6.1 23:15:50 10° NNW 23:20:51 49° W 23:21:06 48° W visible
02 Jul 5.3 22:42:09 10° N 22:47:24 85° E 22:47:49 76° SSE visible
03 Jul 5.9 22:08:52 10° NNE 22:13:50 43° E 22:14:32 41° ESE visible
03 Jul 7.6 23:50:49 10° NW 23:54:06 17° W 23:55:01 16° W visible
04 Jul 6.8 21:36:04 10° NNE 21:40:08 23° E 21:41:16 21° E visible
04 Jul 6.8 23:16:14 10° NNW 23:20:51 33° W 23:21:46 31° WSW visible
05 Jul 7.5 21:04:37 10° ENE 21:06:19 11° ENE 21:08:01 10° E visible
05 Jul 5.8 22:42:18 10° N 22:47:28 64° W 22:48:30 52° SW visible
06 Jul 5.5 22:08:46 10° N 22:13:58 66° E 22:15:16 48° SE visible
06 Jul 8.1 23:52:33 10° WNW 23:54:00 11° WNW 23:55:27 10° W visible
07 Jul 6.3 21:35:39 10° NNE 21:40:21 33° E 21:42:01 27° ESE visible
07 Jul 7.4 23:16:51 10° NNW 23:20:48 22° W 23:22:31 19° WSW visible
08 Jul 7.1 21:03:10 10° NE 21:06:37 18° ENE 21:08:49 14° ESE visible
08 Jul 6.5 22:42:35 10° NNW 22:47:29 42° W 22:49:17 31° SW visible
09 Jul 5.5 22:08:50 10° N 22:14:04 84° W 22:16:06 38° S visible
10 Jul 5.8 21:35:27 10° N 21:40:31 50° E 21:42:55 29° SE visible
10 Jul 8.0 23:17:52 10° NW 23:20:43 15° W 23:23:24 10° WSW visible
